PSLV R/B (43129 NORAD) Tracking and Keplerian Element Data

This shows tracking and keplerian element data for the satellite.

Feedback or suggestion? Click here.




ElementValue
Catalog43129
NamePSLV R/B
Epoch Orbit446
Epoch Day40.62101322
Epoch Year2018
RAAN104.4377
Inclination97.2129
Eccentricity0.0026545
Argument of Perigee346.6736
Mean Anonmoly13.3825
Mean Motion15.74681714
Decay Rate0.00017526
L11 43129U 18004U 18040.62101322 .00017526 00000-0 11812-3 0 9999
L22 43129 97.2129 104.4377 0026545 346.6736 13.3825 15.74681714 4464

Live tracking and technical data element details for PSLV R/B (NORAD 43129). PSLV R/B can be tracked NOW for your location showing map with azimuth and elevation plus other details from your city location.

Track the satellite on the map from your city or location and see movement details for azimuth, elevation, latitude, longitude, range, height, and movement on the map or in text.







IsCatalogInMostPopularTable: catalog: 43129, numindb: 110
Update: records affected: 1



GetName: 43129 PSLV R/B

Hit Count: updated at: Wed, 14 Nov 2018 11:08:39 GMT